sat.trackr.live / text

‹ back to catalog

STARLINK-31276

NORAD 59075 · 2024-041B

PAYLOAD ACTIVE UNKNOWN

§ Identity

Operator
Country
US
Launch date
2024-02-29
Launch site
AFETR
Launch vehicle
Mass (kg)
RCS (m²)

Purposes: comms

External: N2YO · Heavens-Above · Gunter

§ Orbital elements

Epoch: 2026-05-24T23:28:23.907072Z

Period
94.27 min
Inclination
42.9982°
Eccentricity
0.0000347
Mean motion
15.27584071 rev/d
Perigee alt
482.8 km
Apogee alt
483.3 km
Semi-major
6,861.2 km
B*
1.8756e-4
RAAN
239.4619°
Arg perigee
279.5246°
Mean anomaly
80.5566°
Rev number
12,599

§ Raw data

STARLINK-312761 59075U 24041B   26144.97805448  .00004904  00000+0  18756-3 0  99952 59075  42.9982 239.4619 0000347 279.5246  80.5566 15.27584071125991

JSON: /api/v1/satellites/59075 · /tle

For live sub-satellite position, see the globe view (requires WebGL).

§ Visibility from observer

Set your observer location to see the next 7 days of passes ≥ 10°. The values pass through the URL so the page stays shareable.

No JS? Fill the form by hand. The geolocation button needs JavaScript.